Date String (YYYY-MM-DD hh:mm:ss) UTC,Instrument flags,Ambient pressure (hPa),Sample flow (lpm),Bypass flow (lpm),Sample temperature (°C),Ambient temperature (°C),ASC tube jacket temperature (°C),LED temperature (°C),Box temperature (°C),Sample RH (%),Span deviation,Mass concentration (μg/m³),Mass concentration (μg/m³),Mass concentration (μg/m³)
DateTimeUTC,F1_M11,P_M11,Q1_M11,Q2_M11,T1_M11,T2_M11,T3_M11,T4_M11,T5_M11,U1_M11,ZSPAN_M11,X2_M11,X0_M11,X1_M11
2022-03-16 00:00:00,,0823.8,5.02,0.00,28.6,28.0,00.0,37.5,30.4,04.5,0000.0,0001.02,0003.19,0000.53
2022-03-16 00:01:00,,0823.9,5.00,0.00,28.6,28.0,00.0,37.5,30.4,04.5,0000.0,0001.02,0002.11,0000.53
2022-03-16 00:02:00,,0823.8,5.00,0.00,28.6,28.0,00.0,37.5,30.4,04.4,0000.0,0001.03,0002.13,0000.53
2022-03-16 00:03:00,,0823.8,4.99,0.00,28.7,28.0,00.0,37.5,30.4,04.4,0000.0,0001.01,0002.06,0000.53
2022-03-16 00:04:00,,0823.8,5.02,0.00,28.7,28.0,00.0,37.5,30.4,04.5,0000.0,0001.02,0002.18,0000.53
2022-03-16 00:05:00,,0823.9,4.99,0.00,28.7,28.0,00.0,37.5,30.5,04.3,0000.0,0001.00,0002.17,0000.53
2022-03-16 00:06:00,,0823.8,4.99,0.00,28.7,28.0,00.0,37.6,30.4,04.3,0000.0,0000.95,0002.10,0000.53
2022-03-16 00:07:00,,0823.7,4.99,0.00,28.7,28.0,00.0,37.6,30.5,04.5,0000.0,0000.94,0002.10,0000.53
2022-03-16 00:08:00,,0823.6,5.01,0.00,28.7,28.0,00.0,37.6,30.5,04.4,0000.0,0000.92,0002.00,0000.53
2022-03-16 00:09:00,,0823.6,5.00,0.00,28.7,28.0,00.0,37.6,30.5,04.4,0000.0,0000.88,0001.86,0000.53
2022-03-16 00:10:00,,0823.7,4.99,0.00,28.7,28.0,00.0,37.6,30.5,04.3,0000.0,0000.88,0001.85,0000.53
2022-03-16 00:11:00,,0823.7,5.01,0.00,28.7,28.0,00.0,37.6,30.5,04.4,0000.0,0000.90,0001.91,0000.53
2022-03-16 00:12:00,,0823.7,4.99,0.00,28.7,28.0,00.0,37.6,30.5,04.4,0000.0,0000.87,0001.83,0000.53
2022-03-16 00:13:00,,0823.7,4.99,0.00,28.7,28.0,00.0,37.6,30.5,04.3,0000.0,0000.85,0001.87,0000.53
2022-03-16 00:14:00,,0823.8,5.00,0.00,28.7,28.0,00.0,37.6,30.5,04.4,0000.0,0000.88,0001.98,0000.52
2022-03-16 00:15:00,,0823.8,5.02,0.00,28.7,28.0,00.0,37.6,30.5,04.5,0000.0,0000.83,0001.81,0000.52
2022-03-16 00:16:00,,0823.8,4.99,0.00,28.7,28.0,00.0,37.6,30.5,04.4,0000.0,0000.83,0001.77,0000.51
2022-03-16 00:17:00,,0823.8,4.99,0.00,28.7,28.0,00.0,37.6,30.5,04.5,0000.0,0000.83,0002.13,0000.51
2022-03-16 00:18:00,,0823.8,4.99,0.00,28.7,28.0,00.0,37.6,30.5,04.4,0000.0,0000.83,0002.36,0000.51
2022-03-16 00:19:00,,0823.8,4.99,0.00,28.7,28.0,00.0,37.6,30.5,04.4,0000.0,0000.82,0002.34,0000.51
2022-03-16 00:20:00,,0823.7,5.00,0.00,28.7,28.0,00.0,37.6,30.5,04.4,0000.0,0000.83,0002.37,0000.51
2022-03-16 00:21:00,,0823.7,5.01,0.00,28.7,28.0,00.0,37.6,30.5,04.4,0000.0,0000.86,0002.41,0000.51
2022-03-16 00:22:00,,0823.8,5.00,0.00,28.7,28.0,00.0,37.6,30.5,04.5,0000.0,0000.86,0002.62,0000.51
2022-03-16 00:23:00,,0823.9,4.99,0.00,28.7,28.0,00.0,37.6,30.5,04.4,0000.0,0000.87,0002.68,0000.51
2022-03-16 00:24:00,,0823.9,4.99,0.00,28.7,28.0,00.0,37.6,30.5,04.5,0000.0,0000.89,0002.66,0000.51
2022-03-16 00:25:00,,0823.9,5.02,0.00,28.7,28.0,00.0,37.6,30.5,04.5,0000.0,0000.85,0002.49,0000.51
2022-03-16 00:26:00,,0823.9,5.01,0.00,28.7,28.0,00.0,37.6,30.5,04.5,0000.0,0000.82,0002.40,0000.50
2022-03-16 00:27:00,,0823.9,5.00,0.00,28.7,28.1,00.0,37.6,30.6,04.5,0000.0,0000.82,0003.55,0000.50
2022-03-16 00:28:00,,0823.8,5.00,0.00,28.7,28.1,00.0,37.6,30.6,04.6,0000.0,0000.88,0004.47,0000.50
2022-03-16 00:29:00,,0823.8,5.01,0.00,28.7,28.1,00.0,37.7,30.6,04.5,0000.0,0000.89,0005.28,0000.49
2022-03-16 00:30:00,,0823.8,5.00,0.00,28.8,28.1,00.0,37.7,30.5,04.5,0000.0,0000.89,0005.43,0000.49
2022-03-16 00:31:00,,0823.9,5.00,0.00,28.7,28.1,00.0,37.7,30.5,04.6,0000.0,0000.90,0005.53,0000.50
2022-03-16 00:32:00,,0823.9,5.00,0.00,28.8,28.1,00.0,37.7,30.5,04.7,0000.0,0000.90,0005.50,0000.50
2022-03-16 00:33:00,,0824.0,5.00,0.00,28.8,28.1,00.0,37.7,30.6,04.6,0000.0,0000.87,0005.20,0000.50
2022-03-16 00:34:00,,0824.0,5.02,0.00,28.8,28.1,00.0,37.7,30.6,04.7,0000.0,0000.86,0005.15,0000.51
2022-03-16 00:35:00,,0824.0,4.99,0.00,28.8,28.1,00.0,37.7,30.6,04.7,0000.0,0000.84,0005.09,0000.50
2022-03-16 00:36:00,,0824.0,5.00,0.00,28.8,28.1,00.0,37.7,30.6,04.6,0000.0,0000.87,0005.25,0000.50
2022-03-16 00:37:00,,0824.0,5.00,0.00,28.8,28.2,00.0,37.7,30.6,04.6,0000.0,0000.92,0005.42,0000.52
2022-03-16 00:38:00,,0824.0,5.01,0.00,28.8,28.2,00.0,37.7,30.7,04.7,0000.0,0000.97,0004.89,0000.53
2022-03-16 00:39:00,,0824.0,4.99,0.00,28.8,28.2,00.0,37.7,30.7,04.7,0000.0,0000.96,0003.68,0000.53
2022-03-16 00:40:00,,0824.0,4.99,0.00,28.9,28.2,00.0,37.7,30.7,04.6,0000.0,0000.91,0002.07,0000.53
2022-03-16 00:41:00,,0824.0,5.01,0.00,28.9,28.2,00.0,37.7,30.7,04.6,0000.0,0000.92,0001.97,0000.53
2022-03-16 00:42:00,,0824.0,4.99,0.00,28.9,28.2,00.0,37.7,30.7,04.7,0000.0,0000.92,0001.88,0000.53
2022-03-16 00:43:00,,0823.9,4.99,0.00,28.9,28.2,00.0,37.7,30.7,04.6,0000.0,0000.91,0001.87,0000.53
2022-03-16 00:44:00,,0823.9,5.00,0.00,28.9,28.2,00.0,37.8,30.7,04.6,0000.0,0000.90,0001.86,0000.54
2022-03-16 00:45:00,,0823.9,5.01,0.00,28.9,28.3,00.0,37.8,30.7,04.6,0000.0,0000.93,0002.03,0000.53
2022-03-16 00:46:00,,0823.9,5.01,0.00,28.9,28.3,00.0,37.8,30.7,04.6,0000.0,0000.95,0002.14,0000.54
2022-03-16 00:47:00,,0823.9,4.99,0.00,28.9,28.3,00.0,37.8,30.7,04.6,0000.0,0000.92,0001.97,0000.55
2022-03-16 00:48:00,,0824.0,4.98,0.00,28.9,28.3,00.0,37.8,30.7,04.5,0000.0,0000.88,0001.83,0000.53
2022-03-16 00:49:00,,0823.9,5.01,0.00,28.9,28.3,00.0,37.8,30.7,04.6,0000.0,0000.84,0001.71,0000.53
2022-03-16 00:50:00,,0823.9,5.01,0.00,29.0,28.3,00.0,37.8,30.7,04.6,0000.0,0000.86,0001.70,0000.53
2022-03-16 00:51:00,,0824.0,4.99,0.00,29.0,28.3,00.0,37.8,30.7,04.6,0000.0,0000.87,0001.71,0000.53
2022-03-16 00:52:00,,0824.0,5.00,0.00,29.0,28.3,00.0,37.8,30.8,04.6,0000.0,0000.86,0001.67,0000.54
2022-03-16 00:53:00,,0824.0,4.99,0.00,29.0,28.3,00.0,37.9,30.8,04.6,0000.0,0000.87,0001.74,0000.54
2022-03-16 00:54:00,,0824.0,5.02,0.00,29.0,28.3,00.0,37.9,30.8,04.6,0000.0,0000.84,0001.70,0000.53
2022-03-16 00:55:00,,0824.0,5.00,0.00,29.0,28.3,00.0,37.9,30.8,04.6,0000.0,0000.87,0001.79,0000.53
2022-03-16 00:56:00,,0823.9,4.99,0.00,29.0,28.3,00.0,37.9,30.8,04.6,0000.0,0000.86,0001.68,0000.53
2022-03-16 00:57:00,,0823.9,5.00,0.00,29.0,28.3,00.0,37.9,30.8,04.6,0000.0,0000.83,0001.51,0000.52
2022-03-16 00:58:00,,0823.9,5.01,0.00,29.0,28.3,00.0,37.9,30.8,04.6,0000.0,0000.82,0001.51,0000.52
2022-03-16 00:59:00,,0823.9,5.00,0.00,29.0,28.4,00.0,37.9,30.8,04.7,0000.0,0000.82,0001.50,0000.52
